Coatesville, PA

9:48 PM EDT on July 22, 2017 (GMT -0400)
Chester County Carlson

Weather History for KMQS - January, 2014

Change the Weather History Date:

Sunday, January 26, 2014

  Actual Average (KILG) Record (KILG)
Temperature  
Mean Temperature 21 °F -  
Max Temperature 28 °F 41 °F 75 °F (1950)
Min Temperature 14 °F 24 °F 2 °F (1961)
Degree Days  
Heating Degree Days 44    
Moisture  
Dew Point 8 °F    
Average Humidity 56    
Maximum Humidity 80    
Minimum Humidity 39    
Precipitation  
Precipitation 0.00 in - - ()
Sea Level Pressure  
Sea Level Pressure 29.80 in    
Wind  
Wind Speed 11 mph (WSW)    
Max Wind Speed 22 mph    
Max Gust Speed 29 mph    
Visibility 10 miles    
Events Snow    
Averages and records for this station are not official NWS values.
T = Trace of Precipitation, MM = Missing Value Source: NWS Daily Summary

Daily Weather History Graph

Daily Weather History Graph

Search for Another Location

Airport or City:

Trip Planner

Search our weather history database for the weather conditions in past years. The results will help you decide how hot, cold, wet, or windy it might be!

Date:

Astronomy

Jan. 26, 2014 Rise Set
Actual Time 7:17 AM EST 5:15 PM EST
Civil Twilight 6:48 AM EST 5:44 PM EST
Nautical Twilight 6:15 AM EST 6:17 PM EST
Astronomical Twilight 5:43 AM EST 6:49 PM EST
Moon 2:51 AM EST (1/26) 1:02 PM EST (1/26)
Length of Visible Light 10h 56m
Length of Day
9h 58m
Waning Crescent, 24% of the Moon is Illuminated
Jan 26
Waning Crescent
Jan 30
New
Feb 6
First Quarter
Feb 14
Full
Feb 22
Last Quarter

Hourly Weather History & Observations

Time (EST) Temp. Windchill Dew Point Humidity Pressure Visibility Wind Dir Wind Speed Gust Speed Precip Events Conditions
12:15 AM 26.6 °F 13.4 °F 21.2 °F 80% 29.57 in 9.0 mi WNW 18.4 mph - N/A   Scattered Clouds
12:35 AM 24.8 °F 10.0 °F 17.6 °F 74% 29.58 in 3.0 mi WNW 21.9 mph 28.8 mph N/A   Haze
12:55 AM 23.0 °F 8.7 °F 12.2 °F 63% 29.61 in 10.0 mi WNW 18.4 mph - N/A   Clear
1:15 AM 23.0 °F 8.3 °F 12.2 °F 63% 29.62 in 9.0 mi WNW 19.6 mph 25.3 mph N/A   Clear
1:35 AM 21.2 °F 6.0 °F 10.4 °F 63% 29.64 in 8.0 mi WNW 19.6 mph 26.5 mph N/A   Clear
1:55 AM 21.2 °F 6.0 °F 6.8 °F 54% 29.66 in 7.0 mi WNW 19.6 mph 25.3 mph N/A   Clear
2:15 AM 19.4 °F 4.1 °F 5.0 °F 54% 29.69 in 9.0 mi WNW 18.4 mph 23.0 mph N/A   Clear
2:35 AM 19.4 °F 4.1 °F 3.2 °F 49% 29.71 in 10.0 mi WNW 18.4 mph - N/A   Clear
2:55 AM 19.4 °F 3.6 °F 3.2 °F 49% 29.72 in 10.0 mi WNW 19.6 mph 23.0 mph N/A   Clear
3:15 AM 19.4 °F 4.5 °F 3.2 °F 49% 29.72 in 10.0 mi WNW 17.3 mph 21.9 mph N/A   Scattered Clouds
3:35 AM 17.6 °F 2.7 °F 3.2 °F 53% 29.73 in 10.0 mi WNW 16.1 mph 27.6 mph N/A   Partly Cloudy
3:55 AM 17.6 °F 3.7 °F 1.4 °F 49% 29.74 in 10.0 mi WNW 13.8 mph 21.9 mph N/A   Clear
4:15 AM 17.6 °F 3.2 °F 1.4 °F 49% 29.75 in 10.0 mi NW 15.0 mph 19.6 mph N/A   Clear
4:35 AM 17.6 °F 4.3 °F 3.2 °F 53% 29.77 in 10.0 mi WNW 12.7 mph - N/A   Scattered Clouds
4:55 AM 17.6 °F 3.2 °F 5.0 °F 58% 29.77 in 10.0 mi WNW 15.0 mph - N/A   Scattered Clouds
5:15 AM 15.8 °F 4.2 °F 5.0 °F 62% 29.78 in 10.0 mi WNW 9.2 mph - N/A   Partly Cloudy
5:35 AM 14.0 °F 2.9 °F 5.0 °F 67% 29.79 in 10.0 mi WNW 8.1 mph - N/A   Partly Cloudy
5:55 AM 14.0 °F 5.1 °F 5.0 °F 67% 29.81 in 10.0 mi West 5.8 mph - N/A   Clear
6:15 AM 14.0 °F 6.5 °F 5.0 °F 67% 29.82 in 10.0 mi West 4.6 mph - N/A   Clear
6:35 AM 14.0 °F 8.2 °F 6.8 °F 73% 29.85 in 10.0 mi SW 3.5 mph - N/A   Clear
6:55 AM 14.0 °F 8.2 °F 8.6 °F 79% 29.86 in 10.0 mi WSW 3.5 mph - N/A   Clear
7:15 AM 14.0 °F 8.2 °F 8.6 °F 79% 29.86 in 10.0 mi SW 3.5 mph - N/A   Clear
7:35 AM 14.0 °F 2.0 °F 3.2 °F 62% 29.87 in 10.0 mi West 9.2 mph - N/A   Clear
7:55 AM 15.8 °F 8.6 °F -0.4 °F 49% 29.88 in 10.0 mi West 4.6 mph - N/A   Clear
8:15 AM 15.8 °F 6.1 °F -2.2 °F 45% 29.88 in 10.0 mi WNW 6.9 mph - N/A   Clear
8:35 AM 17.6 °F 10.7 °F -2.2 °F 42% 29.89 in 10.0 mi West 4.6 mph - N/A   Clear
8:55 AM 19.4 °F 9.5 °F -2.2 °F 39% 29.91 in 10.0 mi West 8.1 mph - N/A   Clear
9:15 AM 19.4 °F 11.5 °F -0.4 °F 42% 29.91 in 10.0 mi West 5.8 mph - N/A   Clear
9:35 AM 19.4 °F 9.5 °F -0.4 °F 42% 29.91 in 10.0 mi West 8.1 mph - N/A   Clear
9:55 AM 21.2 °F 10.9 °F -0.4 °F 39% 29.90 in 10.0 mi West 9.2 mph - N/A   Clear
10:15 AM 21.2 °F 11.7 °F -0.4 °F 39% 29.91 in 10.0 mi West 8.1 mph - N/A   Clear
10:35 AM 21.2 °F 10.9 °F 1.4 °F 42% 29.89 in 10.0 mi WNW 9.2 mph - N/A   Clear
10:55 AM 21.2 °F 10.1 °F 1.4 °F 42% 29.89 in 10.0 mi WNW 10.4 mph - N/A   Clear
11:15 AM 23.0 °F 13.1 °F 1.4 °F 39% 29.86 in 10.0 mi NW 9.2 mph - N/A   Clear
11:35 AM 23.0 °F 14.7 °F 1.4 °F 39% 29.86 in 10.0 mi West 6.9 mph - N/A   Clear
11:55 AM 23.0 °F 15.8 °F 1.4 °F 39% 29.85 in 10.0 mi WNW 5.8 mph - N/A   Clear
12:15 PM 23.0 °F 15.8 °F 1.4 °F 39% 29.84 in 10.0 mi West 5.8 mph - N/A   Clear
12:35 PM 23.0 °F 15.8 °F 1.4 °F 39% 29.84 in 10.0 mi SSW 5.8 mph - N/A   Clear
12:55 PM 23.0 °F 14.7 °F 1.4 °F 39% 29.85 in 10.0 mi SW 6.9 mph - N/A   Partly Cloudy
1:15 PM 23.0 °F 14.7 °F 1.4 °F 39% 29.85 in 10.0 mi SSW 6.9 mph - N/A   Clear
1:35 PM 23.0 °F 15.8 °F 1.4 °F 39% 29.84 in 10.0 mi SW 5.8 mph - N/A   Scattered Clouds
1:55 PM 23.0 °F 17.0 °F 5.0 °F 46% 29.85 in 10.0 mi West 4.6 mph - N/A Snow Light Snow
2:15 PM 23.0 °F 17.0 °F 8.6 °F 54% 29.84 in 5.0 mi South 4.6 mph - N/A Snow Light Snow
2:35 PM 23.0 °F - 8.6 °F 54% 29.83 in 8.0 mi Calm Calm - N/A Snow Light Snow
2:55 PM 23.0 °F 14.7 °F 8.6 °F 54% 29.82 in 9.0 mi SSW 6.9 mph - N/A   Scattered Clouds
3:15 PM 24.8 °F 16.1 °F 12.2 °F 59% 29.81 in 7.0 mi South 8.1 mph - N/A   Partly Cloudy
3:35 PM 24.8 °F 16.9 °F 10.4 °F 54% 29.81 in 10.0 mi South 6.9 mph - N/A   Clear
3:55 PM 23.0 °F 13.9 °F 10.4 °F 59% 29.80 in 10.0 mi South 8.1 mph - N/A   Mostly Cloudy
4:15 PM 23.0 °F 13.1 °F 12.2 °F 63% 29.81 in 10.0 mi South 9.2 mph - N/A   Overcast
4:35 PM 23.0 °F 18.4 °F 14.0 °F 68% 29.82 in 10.0 mi South 3.5 mph - N/A   Overcast
4:55 PM 23.0 °F 17.0 °F 15.8 °F 74% 29.82 in 10.0 mi South 4.6 mph - N/A   Overcast
5:15 PM 23.0 °F 18.4 °F 15.8 °F 74% 29.82 in 10.0 mi SSE 3.5 mph - N/A   Overcast
5:35 PM 23.0 °F 17.0 °F 15.8 °F 74% 29.81 in 10.0 mi SSE 4.6 mph - N/A   Overcast
5:55 PM 23.0 °F 17.0 °F 15.8 °F 74% 29.80 in 10.0 mi South 4.6 mph - N/A   Overcast
6:15 PM 23.0 °F 18.4 °F 15.8 °F 74% 29.80 in 10.0 mi SSE 3.5 mph - N/A   Overcast
6:35 PM 23.0 °F 17.0 °F 15.8 °F 74% 29.80 in 10.0 mi SSE 4.6 mph - N/A   Overcast
6:55 PM 24.8 °F 19.1 °F 14.0 °F 64% 29.80 in 10.0 mi SSE 4.6 mph - N/A   Overcast
7:15 PM 24.8 °F 17.9 °F 15.8 °F 69% 29.80 in 10.0 mi SE 5.8 mph - N/A   Overcast
7:35 PM 24.8 °F 19.1 °F 15.8 °F 69% 29.80 in 10.0 mi SSE 4.6 mph - N/A   Overcast
7:55 PM 24.8 °F 20.5 °F 15.8 °F 69% 29.80 in 10.0 mi SSE 3.5 mph - N/A   Overcast
8:15 PM 26.6 °F - 15.8 °F 64% 29.80 in 10.0 mi Calm Calm - N/A   Overcast
8:35 PM 26.6 °F 22.6 °F 15.8 °F 64% 29.80 in 10.0 mi SSE 3.5 mph - N/A   Overcast
8:55 PM 26.6 °F 21.2 °F 14.0 °F 59% 29.79 in 10.0 mi South 4.6 mph - N/A   Overcast
9:15 PM 26.6 °F 21.2 °F 14.0 °F 59% 29.79 in 10.0 mi SSE 4.6 mph - N/A   Overcast
9:35 PM 28.4 °F 23.3 °F 14.0 °F 55% 29.78 in 10.0 mi South 4.6 mph - N/A   Overcast
9:55 PM 28.4 °F 23.3 °F 14.0 °F 55% 29.78 in 10.0 mi South 4.6 mph - N/A   Overcast
10:15 PM 28.4 °F 24.6 °F 12.2 °F 51% 29.77 in 10.0 mi SSE 3.5 mph - N/A   Overcast
10:35 PM 28.4 °F - 14.0 °F 55% 29.76 in 10.0 mi Calm Calm - N/A   Overcast
10:55 PM 26.6 °F 22.6 °F 12.2 °F 55% 29.76 in 10.0 mi South 3.5 mph - N/A   Mostly Cloudy
11:15 PM 28.4 °F 24.6 °F 12.2 °F 51% 29.75 in 10.0 mi South 3.5 mph - N/A   Partly Cloudy
11:35 PM 28.4 °F - 14.0 °F 55% 29.74 in 10.0 mi Calm Calm - N/A   Clear
11:55 PM 28.4 °F 24.6 °F 14.0 °F 55% 29.72 in 10.0 mi SSE 3.5 mph - N/A   Clear